Weather History for Lucknow, India

Change the Weather History Date:

Thursday, November 8, 2012

  Actual Average Record
Temperature  
Mean Temperature 68 °F -  
Max Temperature 84 °F 75 °F 91 °F (2000)
Min Temperature 53 °F 56 °F 50 °F (2013)
Cooling Degree Days 4    
Growing Degree Days 18 (Base 50)    
Moisture  
Dew Point 56 °F    
Average Humidity 66    
Maximum Humidity 94    
Minimum Humidity 30    
Precipitation  
Precipitation 0.00 in - - ()
Sea Level Pressure  
Sea Level Pressure 29.82 in    
Wind  
Wind Speed 2 mph ()    
Max Wind Speed 6 mph    
Max Gust Speed -    
Visibility 1.4 miles    
Events Fog    
Averages and records for this station are not official NWS values.
T = Trace of Precipitation, MM = Missing Value Source: Averaged Metar Reports

Daily Weather History Graph

Daily Weather History Graph

Search for Another Location

Airport:

Trip Planner

Search our weather history database for the weather conditions in past years. The results will help you decide how hot, cold, wet, or windy it might be!

Date:

Astronomy

Nov. 08, 2012 Rise Set
Actual Time 6:20 AM IST 5:19 PM IST
Civil Twilight 5:56 AM IST 5:43 PM IST
Nautical Twilight 5:28 AM IST 6:11 PM IST
Astronomical Twilight 5:01 AM IST 6:38 PM IST
Moon No Moon Rise 1:14 PM IST (11/8)
Length of Visible Light 11h 46m
Length of Day
10h 58m
Last Quarter, 37% of the Moon is Illuminated
Nov 8
Last Quarter
Nov 14
New
Nov 20
First Quarter
Nov 28
Full
Dec 6
Last Quarter

Hourly Weather History & Observations

Time (IST) Temp. Heat Index Dew Point Humidity Pressure Visibility Wind Dir Wind Speed Gust Speed Precip Events Conditions
12:00 AM 64.4 °F - 59.0 °F 83% 29.83 in 0.6 mi SSW 2.3 mph - N/A   Mist
1:00 AM 62.6 °F - 57.2 °F 82% 29.80 in 0.6 mi Calm Calm - N/A   Mist
2:00 AM 62.6 °F - 57.2 °F 82% 29.80 in 0.6 mi WSW 4.6 mph - N/A   Mist
3:00 AM 62.6 °F - 59.0 °F 88% 29.80 in 0.6 mi WSW 3.5 mph - N/A   Mist
5:00 AM 60.8 °F - 55.4 °F 82% 29.80 in 0.6 mi Variable 2.3 mph - N/A   Mist
5:30 AM 60.8 °F - 55.4 °F 82% 29.80 in 0.6 mi Variable 2.3 mph - N/A   Mist
6:00 AM 57.2 °F - 55.4 °F 94% 29.80 in 0.6 mi Calm Calm - N/A   Mist
7:00 AM 57.2 °F - 55.4 °F 94% 29.83 in 0.5 mi Variable 2.3 mph - N/A Fog Shallow Fog
7:30 AM 59.0 °F - 55.4 °F 88% 29.86 in 0.5 mi Variable 2.3 mph - N/A Fog Shallow Fog
8:00 AM 60.8 °F - 57.2 °F 88% 29.86 in 0.6 mi Variable 2.3 mph - N/A Fog Shallow Fog
8:30 AM 65 °F - 56 °F 66% 29.89 in 1 mi 2.3 mph - - Fog Patches of Fog
8:30 AM 64.4 °F - 57.2 °F 77% 29.86 in 0.6 mi Variable 2.3 mph - N/A Fog Shallow Fog
9:00 AM 66.2 °F - 55.4 °F 68% 29.89 in 0.7 mi Variable 2.3 mph - N/A   Mist
9:30 AM 68.0 °F - 57.2 °F 68% 29.89 in 0.7 mi Variable 2.3 mph - N/A   Haze
10:30 AM 77.0 °F - 53.6 °F 44% 29.89 in 1.1 mi WNW 3.5 mph - N/A   Haze
11:00 AM 78.8 °F - 53.6 °F 42% 29.86 in 1.2 mi WSW 3.5 mph - N/A   Haze
11:30 AM 78.8 °F - 53.6 °F 42% 29.86 in 1.6 mi WNW 3.5 mph - N/A   Haze
1:00 PM 82.4 °F - 51.8 °F 35% 29.80 in 2.5 mi WNW 4.6 mph - N/A   Haze
1:30 PM - - - N/A% - 2.5 mi West 5.8 mph - N/A   Haze
2:00 PM 84.2 °F - 51.8 °F 33% 29.80 in 2.5 mi WNW 5.8 mph - N/A   Haze
2:30 PM 84.2 °F - 50.0 °F 30% 29.77 in 2.5 mi NW 3.5 mph - N/A   Haze
3:00 PM 84.2 °F - 51.8 °F 33% 29.77 in 2.5 mi WNW 4.6 mph - N/A   Haze
3:30 PM 84.2 °F 83.0 °F 55.4 °F 37% 29.77 in 2.5 mi NNW 3.5 mph - N/A   Haze
4:00 PM 82.4 °F 81.7 °F 55.4 °F 39% 29.77 in 2.5 mi NW 4.6 mph - N/A   Haze
4:30 PM 82.4 °F 82.5 °F 59.0 °F 45% 29.77 in 2.5 mi Variable 2.3 mph - N/A   Haze
5:00 PM 80.6 °F 81.8 °F 62.6 °F 54% 29.77 in 2.2 mi Calm Calm - N/A   Haze
5:30 PM 77.0 °F - 59.0 °F 54% 29.77 in 2.2 mi Calm Calm - N/A   Haze
6:00 PM 71.6 °F - 59.0 °F 64% 29.80 in 1.9 mi Calm Calm - N/A   Haze
6:30 PM 69.8 °F - 59.0 °F 68% 29.80 in 1.9 mi Calm Calm - N/A   Haze
7:00 PM 68.0 °F - 59.0 °F 73% 29.80 in 1.6 mi Calm Calm - N/A   Mist
7:30 PM 66.2 °F - 59.0 °F 78% 29.83 in 1.6 mi Calm Calm - N/A   Mist
8:00 PM 66.2 °F - 57.2 °F 73% 29.83 in 1.4 mi Calm Calm - N/A   Mist
8:30 PM 66.2 °F - 59.0 °F 78% 29.83 in 1.2 mi Calm Calm - N/A   Mist
9:00 PM 64.4 °F - 59.0 °F 83% 29.83 in 1.2 mi Calm Calm - N/A   Mist
10:00 PM 62.6 °F - 59.0 °F 88% 29.83 in 1.2 mi Calm Calm - N/A   Mist